Location: *
(49.5667°N, 1.3667°W)
Time: 21:09:04
(UTC+00:00)

CZ-2C R/B - Pass Details

Date: 20 September 2019
Orbit: 704 x 907 km, 98.1° (Epoch: 20 October)

Event Time Altitude Azimuth Distance (km) Brightness Sun altitude
Exits shadow 20:46:00 37° 194° (SSW) 1,261 3.9 -24.8°
Maximum altitude 20:48:03 62° 259° (W) 933 3.5 -25.1°
Drops below altitude 10° 20:53:35 10° 340° (NNW) 2,511 6.4 -25.8°
Sets 20:56:05 0° 344° (NNW) 3,478 7.2 -26.1°
